Regional Weather Roundup
Issued by NWS

Home | Current Version | Previous Version | Graphics & Text | Print | Product List | Glossary On
Versions: 1 2 3 4 5 6 7 8 9 10 11 12 13 14 15 16 17 18 19 20 21 22 23 24 25 26 27 28 29 30 31 32 33 34 35 36 37 38 39 40 41 42 43 44 45 46 47 48 49 50
463
ASUS44 KLIX 281005
RWRLA
LOUISIANA WEATHER ROUNDUP
NATIONAL WEATHER SERVICE NEW ORLEANS LA
400 AM CST FRI NOV 28 2014

NOTE: "FAIR" INDICATES FEW OR NO CLOUDS BELOW 12,000 FEET WITH NO
      SIGNIFICANT WEATHER AND/OR OBSTRUCTIONS TO VISIBILITY.
      SKY/WX - SKY CONDITION AND SIGNIFICANT WEATHER.
      TMP - AIR TEMPERATURE.    DP   - DEWPOINT TEMPERATURE.
      RH  - RELATIVE HUMIDITY.  PRES - PRESSURE.
      HX  - HEAT INDEX.         WCI  - WIND CHILL INDEX.

*  THESE STATIONS ARE NOT NWS OR FAA STATIONS AND ARE NOT UNDER
   NWS QUALITY CONTROL.

LAZ040-048-061>063-065-066-069-281100-
SOUTHEAST LOUISIANA

CITY           SKY/WX    TMP DP  RH WIND       PRES   REMARKS
N.O. AUDUBON     N/A     44  35  70 MISG        N/A
N.O. INTL ARPT CLEAR     46  36  68 E9        30.42R
N.O. LAKEFRONT CLEAR     46  36  68 E15       30.43S
N.O. DOWNTOWN* FAIR      45  30  57 NE5       30.43R
SLIDELL        CLEAR     33  30  88 CALM      30.43S
BATON ROUGE    CLEAR     35  31  85 NE5       30.42F WCI  31
BOOTHVILLE     CLEAR     51  42  71 NE10      30.40S
BELLE CHASSE   CLEAR     42  35  76 NE5       30.42R
BOGALUSA*        N/A     33  31  93 CALM      30.45S
NEW ROADS*     FAIR      37  32  84 E3        30.42F
GONZALES*      FAIR      37  36  96 CALM      30.42F
HAMMOND*       CLEAR     37  32  81 NE5       30.44S WCI  34
HOUMA*         CLEAR     37  35  91 NE3       30.42S FOG
PORT FOURCHON* MOSUNNY   50  45  81 NE9       30.43F

$$

LAZ041-044-053-054-281100-
SOUTHWEST LOUISIANA

CITY           SKY/WX    TMP DP  RH WIND       PRES   REMARKS
LAKE CHARLES   CLEAR     38  34  85 NE5       30.40F WCI  34
LAFAYETTE      CLEAR     39  34  82 CALM      30.41S
PATTERSON      CLEAR     37  36  93 NE3         N/A
SALT POINT       N/A     45  37  73 VRB3      30.39F
NEW IBERIA     CLEAR     40  33  76 E6        30.41F
CHENAULT AIRPK NOT AVBL

$$

LAZ027-028-281100-
CENTRAL LOUISIANA

CITY           SKY/WX    TMP DP  RH WIND       PRES   REMARKS
FORT POLK      CLEAR     37  33  89 E3        30.40S
ALEXANDRIA INT CLEAR     35  31  85 CALM      30.41S
ALEXANDRIA     CLEAR     30  28  92 CALM      30.42S

$$

LAZ001-002-281100-
NORTHWEST LOUISIANA

CITY           SKY/WX    TMP DP  RH WIND       PRES   REMARKS
SHREVEPORT     CLEAR     36  32  85 SE6       30.38F WCI  31
BARKSDALE AFB  CLEAR     33  30  88 SE5       30.40S WCI  28
DTN SHREVEPORT CLEAR     37  31  78 SE3       30.40S

$$

LAZ014-016-281100-
NORTHEAST LOUISIANA

CITY           SKY/WX    TMP DP  RH WIND       PRES   REMARKS
MONROE         CLEAR     30  29  96 CALM      30.44F FOG
TALLULAH       CLEAR     26  24  92 CALM      30.44S

$$




USA.gov is the U.S. government's official web portal to all federal, state and local government web resources and services.